Location: Baili�vre
(50.0696°N, 4.2409°E)
Time: 00:03:24
(UTC+00:00)

Cosmos 2208 Rocket - Pass Details

Date: 08 August 2020
Orbit: 755 x 805 km, 74.0° (Epoch: 23 September)

Event Time Altitude Azimuth Distance (km) Brightness Sun altitude
Rises 21:45:35 0° 338° (NNW) 3,276 8.9 -18.8°
Reaches altitude 10° 21:48:04 10° 343° (NNW) 2,336 7.7 -19.0°
Maximum altitude 21:53:15 53° 60° (ENE) 946 4.4 -19.4°
Enters shadow 21:55:16 34° 118° (ESE) 1,255 4.7 -19.6°
